This is the latest recevied weather packets stored in our database for station/object N5DGC. If no packets are shown the sender has not sent any weather packets the latest 10 day(s).
| Time | Temp. | Humidity | Pressure | Rain* | Wind** | Luminosity | Snow |
|---|---|---|---|---|---|---|---|
| 1777923503 | 24.44° C | 17% | 1232.5 hPa | 0 mm | - | 824 W/m² | - |
| 1777923201 | 23.89° C | 17% | 1232.2 hPa | 0 mm | - | 662 W/m² | - |
| 1777922900 | 23.89° C | 17% | 1232.6 hPa | 0 mm | - | 525 W/m² | - |
| 1777922597 | 23.33° C | 18% | 1232.5 hPa | 0 mm | - | 619 W/m² | - |
| 1777922296 | 23.33° C | 17% | 1232.7 hPa | 0 mm | - | 581 W/m² | - |
| 1777921993 | 24.44° C | 17% | 1232.6 hPa | 0 mm | - | 583 W/m² | - |
| 1777921688 | 23.89° C | 18% | 1232.9 hPa | 0 mm | - | 761 W/m² | - |
| 1777921384 | 23.89° C | 18% | 1232.6 hPa | 0 mm | - | 642 W/m² | - |
| 1777921081 | 23.89° C | 18% | 1232.9 hPa | 0 mm | - | 650 W/m² | - |
| 1777920778 | 23.33° C | 19% | 1232.8 hPa | 0 mm | - | 584 W/m² | - |
| 1777920474 | 23.33° C | 18% | 1233.2 hPa | 0 mm | - | 862 W/m² | - |
| 1777920170 | 23.33° C | 19% | 1233.4 hPa | 0 mm | - | 681 W/m² | - |
| 1777919866 | 23.33° C | 19% | 1233.3 hPa | 0 mm | - | 818 W/m² | - |
| 1777919563 | 22.78° C | 20% | 1233.6 hPa | 0 mm | - | 876 W/m² | - |
| 1777919261 | 22.78° C | 20% | 1233.3 hPa | 0 mm | - | 690 W/m² | - |
| 1777918958 | 23.33° C | 20% | 1233.4 hPa | 0 mm | - | 785 W/m² | - |
| 1777918656 | 22.78° C | 20% | 1233.8 hPa | 0 mm | - | 857 W/m² | - |
| 1777918353 | 22.22° C | 21% | 1233.5 hPa | 0 mm | - | 875 W/m² | - |
| 1777918052 | 22.22° C | 21% | 1233.8 hPa | 0 mm | - | 508 W/m² | - |
| 1777917750 | 22.22° C | 21% | 1233.6 hPa | 0 mm | - | 478 W/m² | - |
| 1777917447 | 22.22° C | 21% | 1233.8 hPa | 0 mm | - | 609 W/m² | - |
| 1777917144 | 21.67° C | 20% | 1233.9 hPa | 0 mm | - | 665 W/m² | - |
| 1777916842 | 21.11° C | 21% | 1233.9 hPa | 0 mm | - | 587 W/m² | - |
| 1777916540 | 21.67° C | 19% | 1234.1 hPa | 0 mm | - | 485 W/m² | - |
| 1777916236 | 22.22° C | 18% | 1234.1 hPa | 0 mm | - | 511 W/m² | - |
* Rain latest hour (hover to see other rain measurements)
** Current wind speed in m/s (hover to see current wind gust speed)